Change the Weather History Date:

Sunday, September 29, 2013

  Actual Average Record
Temperature  
Mean Temperature 58 °F -  
Max Temperature 76 °F 67 °F 84 °F (1998)
Min Temperature 40 °F 40 °F 26 °F (1999)
Degree Days  
Heating Degree Days 7    
Month to date heating degree days 105  
Growing Degree Days 9 (Base 50)    
Moisture  
Dew Point 29 °F    
Average Humidity 41    
Maximum Humidity 63    
Minimum Humidity 19    
Precipitation  
Precipitation 0.00 in - - ()
Month to date precipitation 7.00  
Year to date precipitation 16.81  
Sea Level Pressure  
Sea Level Pressure 29.94 in    
Wind  
Wind Speed 5 mph (South)    
Max Wind Speed 14 mph    
Max Gust Speed 17 mph    
Visibility 10 miles    
Events      
Averages and records for this station are not official NWS values.
T = Trace of Precipitation, MM = Missing Value Source: NWS Daily Summary

Daily Weather History Graph

Daily Weather History Graph

Search for Another Location

Airport or City:

Trip Planner

Search our weather history database for the weather conditions in past years. The results will help you decide how hot, cold, wet, or windy it might be!

Date:

Astronomy

Sep. 29, 2013 Rise Set
Actual Time 6:53 AM MDT 6:44 PM MDT
Civil Twilight 6:27 AM MDT 7:11 PM MDT
Nautical Twilight 5:55 AM MDT 7:42 PM MDT
Astronomical Twilight 5:24 AM MDT 8:14 PM MDT
Moon 1:38 AM MDT (9/29) 3:41 PM MDT (9/29)
Length of Visible Light 12h 44m
Length of Day
11h 50m
Waning Crescent, 26% of the Moon is Illuminated
Sep 29
Waning Crescent
Oct 4
New
Oct 11
First Quarter
Oct 18
Full
Oct 26
Last Quarter

Hourly Weather History & Observations

Time (MDT) Temp. Windchill Dew Point Humidity Pressure Visibility Wind Dir Wind Speed Gust Speed Precip Events Conditions
12:53 AM 45.0 °F 42.6 °F 30.9 °F 58% 30.08 in 10.0 mi SSE 4.6 mph - N/A   Clear
1:53 AM 44.1 °F - 30.0 °F 58% 30.07 in 10.0 mi Calm Calm - N/A   Clear
2:53 AM 43.0 °F 41.3 °F 28.9 °F 58% 30.05 in 10.0 mi SE 3.5 mph - N/A   Clear
3:53 AM 43.0 °F 40.3 °F 28.0 °F 56% 30.03 in 10.0 mi SSE 4.6 mph - N/A   Partly Cloudy
4:53 AM 50.0 °F - 26.1 °F 39% 29.99 in 10.0 mi SW 10.4 mph - N/A   Partly Cloudy
5:53 AM 46.0 °F 44.8 °F 26.1 °F 46% 30.01 in 10.0 mi South 3.5 mph - N/A   Partly Cloudy
6:53 AM 46.9 °F - 26.1 °F 44% 30.02 in 10.0 mi SW 9.2 mph - N/A   Mostly Cloudy
7:53 AM 48.0 °F - 30.9 °F 52% 30.03 in 10.0 mi SE 3.5 mph - N/A   Mostly Cloudy
8:53 AM 57.0 °F - 28.9 °F 34% 30.01 in 10.0 mi SSW 9.2 mph - N/A   Mostly Cloudy
9:53 AM 62.1 °F - 24.1 °F 23% 29.99 in 10.0 mi WSW 4.6 mph - N/A   Mostly Cloudy
10:53 AM 64.9 °F - 25.0 °F 22% 29.98 in 10.0 mi Variable 3.5 mph - N/A   Mostly Cloudy
11:53 AM 66.9 °F - 23.0 °F 19% 29.96 in 10.0 mi SE 5.8 mph - N/A   Scattered Clouds
12:53 PM 68.0 °F - 25.0 °F 20% 29.91 in 10.0 mi East 5.8 mph - N/A   Mostly Cloudy
1:53 PM 71.1 °F - 27.0 °F 19% 29.85 in 10.0 mi SE 6.9 mph - N/A   Scattered Clouds
2:53 PM 73.9 °F - 28.9 °F 19% 29.84 in 10.0 mi Calm Calm - N/A   Scattered Clouds
3:53 PM 75.0 °F - 30.0 °F 19% 29.82 in 10.0 mi NNE 5.8 mph - N/A   Scattered Clouds
4:53 PM 71.1 °F - 30.9 °F 23% 29.82 in 10.0 mi North 12.7 mph - N/A   Mostly Cloudy
5:53 PM 68.0 °F - 32.0 °F 26% 29.86 in 10.0 mi NNE 5.8 mph - N/A   Mostly Cloudy
6:53 PM 64.9 °F - 35.1 °F 33% 29.87 in 10.0 mi SE 5.8 mph - N/A   Mostly Cloudy
7:53 PM 60.1 °F - 36.0 °F 41% 29.89 in 10.0 mi WSW 4.6 mph - N/A   Mostly Cloudy
8:53 PM 52.0 °F - 39.9 °F 63% 29.88 in 10.0 mi SSW 6.9 mph - N/A   Mostly Cloudy
9:53 PM 54.0 °F - 37.0 °F 53% 29.86 in 10.0 mi South 3.5 mph - N/A   Mostly Cloudy
10:53 PM 59.0 °F - 28.9 °F 32% 29.83 in 10.0 mi SW 11.5 mph - N/A   Mostly Cloudy
11:53 PM 59.0 °F - 26.1 °F 28% 29.82 in 10.0 mi West 8.1 mph - N/A   Mostly Cloudy